Home > Weather > Amberg > Past weeks

Flag for Germany Past Weather in Amberg, Bavaria, Germany — Yesterday and Last 2 Weeks

Now
59 °F

Overcast.


Feels Like: 59 °F
Forecast: 53 / 68 °F
Wind: 1 mph from West

Location: Hohenfels

Current Time: Jun 29, 2016 at 4:03:51 AM

Latest Report: Jun 29, 2016 at 2:58 AM


Visibility: N/A

Pressure: 29.93 "Hg

Humidity: 94%

Dew Point: 57 °F

Location of AmbergLocation

Past Weather in Amberg — Graph

°F

Amberg Temperature Yesterday

Maximum temperature yesterday: 73 °F (at 1:58 PM)
Minimum temperature yesterday: 52 °F (at 4:58 AM)
Average temperature yesterday: 65 °F

High & Low Weather Summary for the Past Weeks

 TemperatureHumidityPressure
High91 °F (Jun 24, 4:58 PM)100% (Jun 16, 1:58 AM)30.29 "Hg (Jun 16, 1:58 AM)
Low45 °F (Jun 18, 4:58 AM)31% (Jun 24, 6:58 PM)29.53 "Hg (Jun 14, 4:58 PM)
Average64 °F75%29.98 "Hg
* Reported Jun 14 2:58 AM — Jun 29 2:58 AM, Amberg, Weather by CustomWeather, © 2016

Note: Actual official high and low records may vary slightly from our data, if they occured in-between our weather recording intervals... More about our weather records

Advertising

Amberg Weather History for the Previous 24 Hours

Scroll right to see more
 ConditionsComfort  
Time TempWeatherWind HumidityBarometerVisibility
2:58 AM
Wed, Jun 29
59 °FOvercast.1 mph94%29.93 "HgN/A
1:58 AM61 °FMostly cloudy.No wind88%29.93 "HgN/A
12:58 AM61 °FMostly cloudy.1 mph88%29.96 "HgN/A
11:58 PM
Tue, Jun 28
63 °FMostly cloudy.No wind83%29.96 "HgN/A
10:58 PM64 °FOvercast.No wind83%29.97 "HgN/A
9:58 PM66 °FLight rain. More clouds than sun.No wind78%29.98 "Hg3 mi
8:58 PM70 °FMore clouds than sun.3 mph69%29.98 "HgN/A
7:58 PM72 °FMild.N/A65%29.98 "HgN/A
6:58 PM73 °FScattered clouds.1 mph50%30.00 "HgN/A
5:58 PM73 °FPartly sunny.No wind53%30.02 "HgN/A
4:58 PM73 °FPartly sunny.9 mph53%30.03 "HgN/A
3:58 PM72 °FPartly sunny.1 mph57%30.04 "HgN/A
2:58 PM73 °FBroken clouds.6 mph53%30.04 "HgN/A
1:58 PM73 °FScattered clouds.7 mph53%30.05 "HgN/A
12:58 PM70 °FPartly sunny.6 mph57%30.08 "HgN/A
11:58 AM72 °FScattered clouds.6 mph57%30.08 "HgN/A
10:58 AM70 °FScattered clouds.5 mph60%30.09 "HgN/A
9:58 AM66 °FBroken clouds.7 mph68%30.09 "HgN/A
8:58 AM63 °FCloudy.No wind77%30.10 "HgN/A
7:58 AM63 °FPartly sunny.No wind77%30.10 "HgN/A
6:58 AM57 °FSunny.No wind82%30.11 "HgN/A
5:58 AM52 °FClear.No wind94%30.11 "HgN/A
4:58 AM52 °FClear.No wind94%30.12 "HgN/A
Weather by CustomWeather, © 2016

See weather overviewHow to use our weather pages